Weather Roundup
Issued by NWS Chicago, IL

Home | Current Version | Previous Version | Text Only | Print | Product List | Glossary Off
Versions: 1 2 3 4 5 6 7 8 9 10 11 12 13 14 15 16 17 18 19 20 21 22 23 24 25 26 27 28 29 30 31 32 33 34 35 36 37 38 39 40 41 42 43 44 45 46 47 48 49 50

000
NZUS59 KLOT 071402
HRRLOT

CHICAGO AREA WEATHER ROUNDUP
NATIONAL WEATHER SERVICE CHICAGO/ROMEOVILLE IL
900 AM CDT TUE JUL 07 2015

NOTE: "FAIR" INDICATES FEW OR NO CLOUDS BELOW 12,000 FEET WITH NO
SIGNIFICANT WEATHER AND/OR OBSTRUCTIONS TO VISIBILITY.

* THESE STATIONS ARE NOT UNDER NWS QUALITY CONTROL. THEY ALSO MAY NOT
  REPORT WEATHER SUCH AS PRECIPITATION OR FOG.

ILZ005-006-012>014-019>023-071500-
NORTHEAST ILLINOIS

CITY           SKY/WX    TMP DP  RH WIND       PRES   REMARKS
OHARE          CLOUDY    59  52  77 N20G26    29.98R
MIDWAY         CLOUDY    60  53  77 N16       29.98R
AURORA         CLOUDY    62  55  77 N16G22    29.98R HAZE
LANSING*       LGT RAIN  57  54  89 N16G28    29.98R
WAUKEGAN       CLOUDY    59  52  77 N13G21    29.98R
DUPAGE AIRPORT CLOUDY    61  54  77 NE17      29.98R
WHEELING       CLOUDY    59  51  75 N13G21    30.00R
NORTHERLY IS     N/A     58  53  84 N13         N/A
$$

WIZ051-052-058>065-066-070>072-071500-
SOUTHEAST WISCONSIN

CITY           SKY/WX    TMP DP  RH WIND       PRES   REMARKS
MILWAUKEE      MOSUNNY   62  51  67 N15G22    30.00R
KENOSHA*       CLOUDY    61  51  70 N16G23    30.00R
RACINE*        CLOUDY    60  52  74 N14       30.01R
WAUKESHA       SUNNY     59  52  77 N10G16    30.00R
$$

INZ001>003-010>013-019-020-071500-
NORTHWEST INDIANA

CITY           SKY/WX    TMP DP  RH WIND       PRES   REMARKS
GARY*          RAIN      59  57  94 N13G32    29.98R
MICHIGAN CITY* NOT AVBL
RENSSELAER*    NOT AVBL
$$

LMZ740>746-071500-
SOUTHERN LAKE MICHIGAN

STATION/POSITION TIME  SKY/WX   TEMP WIND        PRES    VSBY
                                AIR  DIR/SP/G
                 (UTC)          (F)  (DEG/KT/KT) (MB)    (MI)
HARRISON CRIB    1300            56  360/ 24/ 28   N/A
BURNHAM HARBOR   1400            58  350/ 17/ 21   N/A
CALUMET HARBOR   1300            58  340/ 16/ 22   N/A
BURNS HARBOR     1340            59  360/ 19/ 23 1014.9R
MICHIGAN CITY    1300            59  340/ 21/ 23   N/A
$$

ABBREVIATIONS USED IN REMARKS
   TC - TEMPERATURE IN CELSIUS
  WCI - WIND CHILL INDEX
   HX - HEAT INDEX
  VSB - VISIBILITY
$$



USA.gov is the U.S. government's official web portal to all federal, state and local government web resources and services.